Weather History for KBIL - November, 2013

Change the Weather History Date:

Tuesday, November 12, 2013

  Actual Average Record
Temperature  
Mean Temperature 40 °F 37 °F  
Max Temperature 60 °F 47 °F 77 °F (1999)
Min Temperature 20 °F 28 °F -11 °F (1986)
Degree Days  
Heating Degree Days 25 28  
Month to date heating degree days 323 302  
Since 1 July heating degree days 1060 1054  
Cooling Degree Days 0 0  
Month to date cooling degree days 0 0  
Year to date cooling degree days 840 636  
Moisture  
Dew Point 27 °F    
Average Humidity 64    
Maximum Humidity 92    
Minimum Humidity 35    
Precipitation  
Precipitation 0.00 in 0.02 in 0.54 in (2005)
Month to date precipitation 0.21 0.26  
Year to date precipitation 14.59 12.79  
Snow  
Snow 0.00 in 0.20 in 4.70 in (1959)
Month to date snowfall 2.5 2.2  
Since 1 July snowfall 7.6 7.4  
Since 1 September snowfall 7.6 7.4  
Snow Depth 2.00 in    
Sea Level Pressure  
Sea Level Pressure 30.37 in    
Wind  
Wind Speed 17 mph (SW)    
Max Wind Speed 26 mph    
Max Gust Speed 33 mph    
Visibility 10 miles    
Events Fog    
T = Trace of Precipitation, MM = Missing Value Source: NWS Daily Summary

Daily Weather History Graph

Daily Weather History Graph

Search for Another Location

Airport or City:

Trip Planner

Search our weather history database for the weather conditions in past years. The results will help you decide how hot, cold, wet, or windy it might be!

Date:

Astronomy

Nov. 12, 2013 Rise Set
Actual Time 7:10 AM MST 4:45 PM MST
Civil Twilight 6:38 AM MST 5:17 PM MST
Nautical Twilight 6:02 AM MST 5:53 PM MST
Astronomical Twilight 5:27 AM MST 6:28 PM MST
Moon 2:15 PM MST (11/12) 1:48 AM MST (11/12)
Length of Visible Light 10h 39m
Length of Day
9h 35m
Waxing Gibbous, 77% of the Moon is Illuminated
Nov 12
Waxing Gibbous
Nov 17
Full
Nov 25
Last Quarter
Dec 2
New
Dec 9
First Quarter

Hourly Weather History & Observations

Time (MST) Temp. Windchill Dew Point Humidity Pressure Visibility Wind Dir Wind Speed Gust Speed Precip Events Conditions
12:21 AM 19.9 °F 13.4 °F 18.0 °F 92% 30.46 in 5.0 mi South 4.6 mph - N/A Fog Patches of Fog
12:53 AM 21.0 °F 14.6 °F 19.0 °F 92% 30.60 in 8.0 mi SW 4.6 mph - N/A Fog Partly Cloudy
1:53 AM 21.0 °F 8.6 °F 19.0 °F 92% 30.60 in 5.0 mi SSW 12.7 mph - N/A Fog Patches of Fog
2:53 AM 21.0 °F 9.3 °F 19.0 °F 92% 30.58 in 10.0 mi SSW 11.5 mph - N/A   Clear
3:53 AM 23.0 °F 11.1 °F 19.9 °F 88% 30.56 in 10.0 mi SSW 12.7 mph - N/A   Clear
4:53 AM 25.0 °F 12.6 °F 23.0 °F 92% 30.54 in 10.0 mi SW 15.0 mph - N/A   Clear
5:53 AM 30.0 °F 19.5 °F 25.0 °F 82% 30.51 in 10.0 mi SW 13.8 mph - N/A   Clear
6:53 AM 28.9 °F 16.5 °F 25.0 °F 85% 30.50 in 10.0 mi SW 18.4 mph - N/A   Clear
7:53 AM 30.0 °F 19.1 °F 26.1 °F 85% 30.50 in 10.0 mi SW 15.0 mph - N/A   Clear
8:53 AM 33.1 °F 23.0 °F 27.0 °F 78% 30.48 in 10.0 mi SW 15.0 mph - N/A   Clear
9:53 AM 37.9 °F 29.6 °F 30.0 °F 73% 30.45 in 10.0 mi SW 13.8 mph - N/A   Clear
10:53 AM 46.0 °F 39.9 °F 33.1 °F 61% 30.41 in 10.0 mi WSW 13.8 mph - N/A   Clear
11:53 AM 48.9 °F - 35.1 °F 59% 30.36 in 10.0 mi SW 15.0 mph - N/A   Clear
12:53 PM 55.9 °F - 36.0 °F 47% 30.32 in 10.0 mi SW 18.4 mph - N/A   Clear
1:53 PM 60.1 °F - 33.1 °F 36% 30.28 in 10.0 mi WSW 17.3 mph 26.5 mph N/A   Clear
2:53 PM 59.0 °F - 32.0 °F 36% 30.27 in 10.0 mi WSW 21.9 mph 32.2 mph N/A   Clear
3:53 PM 57.9 °F - 30.0 °F 35% 30.24 in 10.0 mi WSW 25.3 mph 32.2 mph N/A   Clear
4:53 PM 55.9 °F - 28.9 °F 36% 30.24 in 10.0 mi WSW 23.0 mph 32.2 mph N/A   Partly Cloudy
5:53 PM 55.0 °F - 28.0 °F 35% 30.23 in 10.0 mi WSW 23.0 mph - N/A   Clear
6:53 PM 54.0 °F - 27.0 °F 35% 30.23 in 10.0 mi WSW 21.9 mph - N/A   Partly Cloudy
7:53 PM 54.0 °F - 27.0 °F 35% 30.22 in 10.0 mi WSW 19.6 mph - N/A   Clear
8:53 PM 54.0 °F - 26.1 °F 34% 30.20 in 10.0 mi WSW 21.9 mph - N/A   Scattered Clouds
9:53 PM 54.0 °F - 26.1 °F 34% 30.20 in 10.0 mi WSW 18.4 mph - N/A   Scattered Clouds
10:53 PM 54.0 °F - 27.0 °F 35% 30.17 in 10.0 mi WSW 18.4 mph 28.8 mph N/A   Partly Cloudy
11:53 PM 53.1 °F - 28.0 °F 38% 30.17 in 10.0 mi WSW 18.4 mph - N/A   Partly Cloudy